User: anonymous   Login
Location: Azul
(36.7830°S, 59.8500°W)
Time: 22:16:07
(UTC-03:00)
Language:

XW-2F - Orbit

View from above orbital plane
View from above orbital plane
View from above satellite
View from above satellite

Ground track
Ground track

The orbit data is extracted from the following two-line orbital elements,

1 40910U 15049M   22220.49655892  .00004988  00000-0  21000-3 0  9994
2 40910  97.4740 227.3290 0014132 146.8868   4.7890 15.23738853381100
Epoch (UTC): 08 August 2022 11:55:02
Eccentricity: 0.0014132
inclination: 97.4740°
perigee height: 485 km
apogee height: 504 km
right ascension of ascending node: 227.3290°
argument of perigee: 146.8868°
revolutions per day: 15.23738853
mean anomaly at epoch: 4.7890°
orbit number at epoch: 38110

The dashed part of the orbit path shows where the satellite is in the earth's shadow,  

DLR